Weather Roundup
Issued by NWS

Home | Current Version | Previous Version | Graphics & Text | Print | Product List | Glossary Off
Versions: 1 2 3 4 5 6 7 8 9 10 11 12 13 14 15 16 17 18 19 20 21 22 23 24 25 26 27 28 29 30 31 32 33 34 35 36 37 38 39 40 41 42 43 44 45 46 47 48 49 50

000
NZUS93 KARX 191710
HRRWXR

CURRENT HOURLY OBSERVATIONS ACROSS
MUCH OF THE UPPER MISSISSIPPI VALLEY
NATIONAL WEATHER SERVICE LA CROSSE WI
1100 AM CST MON FEB 19 2018


...SOUTHEAST MINNESOTA...


CITY           SKY/WX    TMP DP  RH WIND       PRES   REMARKS
ROCHESTER      FRZ RAIN  29  28  96 NE20      29.78S FOG     WCI  16
ROCHESTER/MAYO CLOUDY    28  28  96 N10G20    29.81R WCI  19
WINONA         MIX PCPN  34  32  93 NE9       29.82R WCI  26
AUSTIN         MIX PCPN  30  27  86 NE12      29.76S WCI  21
ALBERT LEA     MIX PCPN  27  25  93 N13       29.78R WCI  16
DODGE CENTER   MIX PCPN  27  25  93 NE15G21   29.78F WCI  15
PRESTON        CLOUDY    31  30  94 NE13      29.77S FOG     WCI  21
OWATONNA       MIX PCPN  25  21  86 N15G21    29.81S WCI  12
FARIBAULT      MIX PCPN  23  21  93 N12G20    29.85S WCI  12
$$

...ELSEWHERE IN MINNESOTA...


CITY           SKY/WX    TMP DP  RH WIND       PRES   REMARKS
MINNEAPOLIS    LGT SNOW  21  19  92 N12       29.90S FOG     WCI   9
INTNL FALLS    FAIR       4  -3  73 NE8       30.22R WCI  -9
DULUTH         LGT SNOW  10   5  80 N10       30.03F VSB 1   WCI  -4
RED WING       LGT SNOW  27  21  80 NE9       29.87R WCI  17
REDWOOD FALLS  LGT SNOW  17  13  84 NE10G17   29.91F FOG     WCI   5
MANKATO        MIX PCPN  21  18  88 N17       29.85S FOG     WCI   7
WORTHINGTON    FLURRIES  16  12  84 N25G33    29.81F WCI  -3
FAIRMONT       LGT SNOW  21  18  88 MISG      29.82S FOG
$$

...SOUTHWEST WISCONSIN...


CITY           SKY/WX    TMP DP  RH WIND       PRES   REMARKS
LA CROSSE      CLOUDY    37  30  75 N8        29.80S WCI  31
PRAIRIE DU CHI DRZL/FOG  35  34  94 CALM      29.76F VSB 1
BOSCOBEL       CLOUDY    38  34  85 VRB5      29.78F FOG     WCI  34
LONE ROCK      CLOUDY    38  35  89 NE8       29.79F FOG     WCI  32
PLATTEVILLE    CLOUDY    37  37 100 E10       29.75F VSB 1/2 WCI  29
FORT MC COY    CLOUDY    37  32  81 NE9       29.82R WCI  31
CAMP DOUGLAS   PTSUNNY   38  32  76 NE5       29.82R WCI  35
MAUSTON-NEW LI CLOUDY    39  32  78 E3        29.82R
VIROQUA        CLOUDY    38  34  86 E9        29.77S WCI  31
WIS DELLS      CLOUDY    36  32  85 NE6       29.82S WCI  31
$$

...ELSEWHERE IN WISCONSIN...


CITY           SKY/WX    TMP DP  RH WIND       PRES   REMARKS
MILWAUKEE      LGT RAIN  42  39  89 NE5       29.83F FOG
MADISON        LGT RAIN  38  36  92 NE7       29.83S FOG     WCI  33
GREEN BAY      CLOUDY    34  29  82 NE20      29.92R HAZE    WCI  23
EAU CLAIRE     FRZ RAIN  24  21  88 NE16G24   29.87S FOG     WCI  11
BLACK RVR FLS  LGT RAIN  33  28  82 NE8       29.83R WCI  26
MEDFORD        MIX PCPN  23  19  85 NE15      29.87R WCI  10
WAUSAU         CLOUDY    31  25  78 NE12G20   29.86R HAZE    WCI  22
WIS RAPIDS     CLOUDY    33  28  81 E14       29.85S WCI  23
MARSHFIELD     CLOUDY    31  27  85 NE15      29.83S FOG     WCI  20
RICE LAKE      CLOUDY    22  18  85 N14       29.93F WCI   9
$$

...NORTHEAST IOWA...


CITY           SKY/WX    TMP DP  RH WIND       PRES   REMARKS
WATERLOO       CLOUDY    36  36 100 NE8       29.69F FOG     WCI  30
DUBUQUE        FOG       38  36  92 NE7       29.72F VSB 1/4 WCI  33
DECORAH        CLOUDY    36  36 100 NE7G15    29.72F FOG     WCI  30
MASON CITY     MIX PCPN  30  28  92 N20       29.74F FOG     WCI  17
CHARLES CITY   LGT RAIN  34  34 100 N12       29.73R VSB 3/4 WCI  25
OELWEIN        FOG       37  36  93 NE14      29.68F VSB 1/2 WCI  29
$$

...ELSEWHERE IN IOWA...


CITY           SKY/WX    TMP DP  RH WIND       PRES   REMARKS
DES MOINES     LGT RAIN  36  34  92 NW9       29.68R VSB 1   WCI  29
IOWA CITY      FOG       43  41  93 SE5       29.69F VSB 1/4
FORT DODGE     CLOUDY    29  27  92 N15G25    29.73S FOG     WCI  18
MARSHALLTOWN   CLOUDY    38  38 100 NE10      29.66S FOG     WCI  31
CEDAR RAPIDS   RAIN      44  44 100 VRB3      29.67F VSB 1/2
$$

...NORTHERN ILLINOIS...


CITY           SKY/WX    TMP DP  RH WIND       PRES   REMARKS
CHICAGO-OHARE  LGT RAIN  44  42  93 SE8       29.81F VSB 1
CHICAGO-MIDWAY RAIN      46  45  96 SE7       29.82F FOG
MOLINE         LGT RAIN  51  50  96 S8        29.70F
ROCKFORD       LGT RAIN  40  39  97 E6        29.80F FOG
PEORIA         CLOUDY    57  56  96 S18G28    29.80R
$$

NOTE: "FAIR" INDICATES FEW OR NO CLOUDS BELOW 12,000 FEET WITH NO
SIGNIFICANT WEATHER AND/OR OBSTRUCTIONS TO VISIBILITY. WIND
SPEEDS ARE IN MILES-PER-HOUR.




USA.gov is the U.S. government's official web portal to all federal, state and local government web resources and services.